OCN8D LEIB-EDDF

Flight info

Callsign OCN8D
Flight time N/A
Altitude 36000
Route KABRE DCT ELTAN N853 LUMAS DCT MAXIR DCT LUSOL DCT BODRU DCT OKTET DCT IRMAR DCT KINES DCT VANAS DCT ESOKO DCT GODRA DCT LADOL T163 EMPAX EMPAX5B
Aircraft A320/M-SDE2E3FGIJ1LORWXYZ/HB1

Departure

Time 2026-05-05 13:57
Airport Ibiza Airport (LEIB)

Arrival

Time N/A
Airport Frankfurt Main Airport (EDDF)
Time Latitude Longitude Altitude Speed Heading
2026-05-05 13:38 38.87507 1.36796 9 ft 0 kts 17°
2026-05-05 13:50 38.87509 1.36796 8 ft 0 kts 17°
2026-05-05 13:51 38.87517 1.36807 8 ft 3 kts 53°
2026-05-05 13:51 38.87507 1.36839 8 ft 5 kts 144°
2026-05-05 13:51 38.87466 1.36834 8 ft 6 kts 198°
2026-05-05 13:52 38.87430 1.36800 8 ft 7 kts 211°
2026-05-05 13:52 38.87382 1.36811 8 ft 7 kts 153°
2026-05-05 13:52 38.87342 1.36837 9 ft 6 kts 153°
2026-05-05 13:52 38.87300 1.36893 9 ft 11 kts 92°
2026-05-05 13:53 38.87330 1.36972 9 ft 9 kts 60°
2026-05-05 13:53 38.87360 1.37047 9 ft 11 kts 63°
2026-05-05 13:53 38.87408 1.37168 10 ft 20 kts 63°
2026-05-05 13:53 38.87486 1.37350 9 ft 24 kts 62°
2026-05-05 13:54 38.87565 1.37543 10 ft 24 kts 62°
2026-05-05 13:54 38.87645 1.37731 9 ft 24 kts 61°
2026-05-05 13:54 38.87721 1.37910 11 ft 23 kts 62°
2026-05-05 13:54 38.87791 1.38082 9 ft 21 kts 62°
2026-05-05 13:55 38.87855 1.38237 9 ft 19 kts 62°
2026-05-05 13:55 38.87915 1.38381 9 ft 17 kts 62°
2026-05-05 13:55 38.87970 1.38511 9 ft 16 kts 62°
2026-05-05 13:55 38.87998 1.38626 9 ft 12 kts 119°
2026-05-05 13:56 38.87938 1.38675 11 ft 9 kts 153°
2026-05-05 13:56 38.87896 1.38702 12 ft 6 kts 154°
2026-05-05 13:56 38.87848 1.38674 11 ft 10 kts 239°
2026-05-05 13:56 38.87775 1.38497 13 ft 50 kts 242°
2026-05-05 13:57 38.87505 1.37845 11 ft 115 kts 242°
2026-05-05 13:57 38.87049 1.36744 87 ft 157 kts 242°
2026-05-05 13:57 38.86498 1.35517 788 ft 159 kts 234°
2026-05-05 13:57 38.85784 1.34431 1494 ft 162 kts 230°
2026-05-05 13:58 38.84978 1.33307 1881 ft 182 kts 230°
2026-05-05 13:58 38.84082 1.32055 2205 ft 203 kts 230°
2026-05-05 13:58 38.83093 1.30660 2670 ft 216 kts 230°
2026-05-05 13:58 38.82057 1.29198 3320 ft 221 kts 230°
2026-05-05 13:59 38.79452 1.27263 4950 ft 234 kts 183°
2026-05-05 13:59 38.77746 1.27533 5366 ft 260 kts 173°
2026-05-05 14:00 38.74056 1.28413 6971 ft 274 kts 173°
2026-05-05 14:00 38.72810 1.28720 7576 ft 276 kts 173°
2026-05-05 14:00 38.70268 1.29335 8787 ft 280 kts 174°
2026-05-05 14:00 38.68344 1.29792 9700 ft 283 kts 174°
2026-05-05 14:01 38.66398 1.30245 10526 ft 286 kts 175°
2026-05-05 14:01 38.64432 1.30698 11337 ft 288 kts 175°
2026-05-05 14:01 38.62446 1.31172 12065 ft 297 kts 172°
2026-05-05 14:01 38.60471 1.32336 12309 ft 333 kts 146°
2026-05-05 14:02 38.59005 1.34746 12811 ft 359 kts 117°
2026-05-05 14:02 38.58508 1.37918 13483 ft 374 kts 90°
2026-05-05 14:02 38.59109 1.41177 14111 ft 383 kts 66°
2026-05-05 14:02 38.60391 1.44189 14743 ft 388 kts 56°
2026-05-05 14:03 38.61989 1.46987 15362 ft 392 kts 50°
2026-05-05 14:03 38.63722 1.49698 15984 ft 396 kts 49°
2026-05-05 14:03 38.65473 1.52445 16620 ft 401 kts 50°
2026-05-05 14:03 38.67124 1.55345 17252 ft 406 kts 54°
2026-05-05 14:04 38.68664 1.58396 17876 ft 410 kts 57°
2026-05-05 14:04 38.70128 1.61561 18451 ft 415 kts 59°
2026-05-05 14:04 38.71560 1.64793 18968 ft 420 kts 59°
2026-05-05 14:04 38.72982 1.68022 19488 ft 424 kts 59°
2026-05-05 14:05 38.74471 1.71359 20005 ft 428 kts 59°
2026-05-05 14:05 38.75978 1.74669 20519 ft 432 kts 58°
2026-05-05 14:05 38.77498 1.77953 21015 ft 437 kts 58°
2026-05-05 14:05 38.79064 1.81308 21523 ft 441 kts 58°
2026-05-05 14:06 38.80648 1.84697 22000 ft 445 kts 58°
2026-05-05 14:06 38.82243 1.88114 22476 ft 449 kts 58°
2026-05-05 14:06 38.83851 1.91567 22937 ft 453 kts 59°
2026-05-05 14:06 38.85470 1.95051 23428 ft 457 kts 59°
2026-05-05 14:07 38.87119 1.98617 23844 ft 460 kts 59°
2026-05-05 14:07 38.88732 2.02116 24230 ft 464 kts 59°
2026-05-05 14:07 38.90377 2.05698 24614 ft 468 kts 59°
2026-05-05 14:07 38.92035 2.09309 25009 ft 470 kts 59°
2026-05-05 14:08 38.93701 2.12937 25405 ft 473 kts 59°
2026-05-05 14:08 38.95375 2.16587 25806 ft 476 kts 59°
2026-05-05 14:08 38.97060 2.20258 26201 ft 478 kts 59°
2026-05-05 14:08 38.98753 2.23948 26583 ft 481 kts 59°
2026-05-05 14:09 39.00453 2.27657 26974 ft 483 kts 60°
2026-05-05 14:09 39.02157 2.31388 27367 ft 485 kts 60°
2026-05-05 14:09 39.03868 2.35138 27791 ft 486 kts 60°
2026-05-05 14:09 39.05583 2.38899 28172 ft 488 kts 60°
2026-05-05 14:10 39.07305 2.42675 28542 ft 491 kts 60°
2026-05-05 14:10 39.09034 2.46472 28913 ft 493 kts 60°
2026-05-05 14:10 39.10770 2.50293 29252 ft 497 kts 60°
2026-05-05 14:10 39.12519 2.54151 29561 ft 500 kts 60°
2026-05-05 14:11 39.14274 2.58031 29903 ft 503 kts 60°
2026-05-05 14:11 39.16035 2.61928 30201 ft 505 kts 60°
2026-05-05 14:11 39.17805 2.65848 30489 ft 507 kts 60°
2026-05-05 14:11 39.19582 2.69781 30760 ft 509 kts 61°
2026-05-05 14:12 39.21365 2.73727 31042 ft 510 kts 61°
2026-05-05 14:12 39.23154 2.77691 31314 ft 512 kts 61°
2026-05-05 14:12 39.24944 2.81666 31640 ft 512 kts 61°
2026-05-05 14:12 39.26727 2.85637 32041 ft 511 kts 61°
2026-05-05 14:13 39.28501 2.89595 32433 ft 510 kts 61°
2026-05-05 14:13 39.30274 2.93554 32821 ft 508 kts 61°
2026-05-05 14:13 39.32042 2.97504 33241 ft 508 kts 61°
2026-05-05 14:13 39.33815 3.01463 33525 ft 509 kts 62°
2026-05-05 14:14 39.35586 3.05425 33846 ft 509 kts 62°
2026-05-05 14:14 39.37354 3.09388 34196 ft 508 kts 61°
2026-05-05 14:14 39.39115 3.13343 34527 ft 507 kts 61°
2026-05-05 14:14 39.40875 3.17298 34835 ft 507 kts 61°
2026-05-05 14:15 39.42631 3.21247 35132 ft 506 kts 61°
2026-05-05 14:15 39.44381 3.25193 35410 ft 506 kts 61°
2026-05-05 14:15 39.46131 3.29141 35676 ft 506 kts 61°
2026-05-05 14:15 39.47879 3.33091 35888 ft 506 kts 61°
2026-05-05 14:16 39.51324 3.40902 35930 ft 500 kts 61°
2026-05-05 14:16 39.54786 3.48767 35924 ft 500 kts 61°
2026-05-05 14:17 39.58205 3.56542 35932 ft 500 kts 61°
2026-05-05 14:17 39.61644 3.64381 35929 ft 500 kts 61°
2026-05-05 14:18 39.65072 3.72228 35932 ft 500 kts 61°
2026-05-05 14:18 39.68501 3.80080 35935 ft 500 kts 61°
2026-05-05 14:19 39.71927 3.87941 35928 ft 500 kts 62°
2026-05-05 14:19 39.75334 3.95816 35948 ft 500 kts 62°
2026-05-05 14:20 39.78742 4.03710 35941 ft 501 kts 62°
2026-05-05 14:20 39.82179 4.11590 35943 ft 501 kts 57°
2026-05-05 14:21 39.84287 4.15198 35947 ft 501 kts 46°
2026-05-05 14:21 39.86808 4.18305 35947 ft 498 kts 35°
2026-05-05 14:21 39.92738 4.22686 35924 ft 486 kts 14°
2026-05-05 14:22 39.99232 4.24646 35946 ft 477 kts
2026-05-05 14:22 40.05773 4.26175 35932 ft 478 kts
2026-05-05 14:23 40.12326 4.27718 35923 ft 479 kts
2026-05-05 14:23 40.18885 4.29263 35934 ft 479 kts
2026-05-05 14:24 40.25460 4.30819 35931 ft 480 kts
2026-05-05 14:24 40.32034 4.32381 35920 ft 480 kts
2026-05-05 14:25 40.37510 4.33682 35930 ft 481 kts
2026-05-05 14:25 40.45168 4.35499 35942 ft 482 kts
2026-05-05 14:26 40.51766 4.37074 35936 ft 482 kts
2026-05-05 14:26 40.57299 4.38402 35932 ft 482 kts
2026-05-05 14:27 40.63865 4.39970 35930 ft 483 kts
2026-05-05 14:27 40.70517 4.41563 35931 ft 483 kts
2026-05-05 14:28 40.77084 4.43136 35932 ft 483 kts
2026-05-05 14:28 40.83696 4.44731 35953 ft 483 kts
2026-05-05 14:29 40.90311 4.46329 35949 ft 483 kts
2026-05-05 14:29 40.96929 4.47921 35939 ft 483 kts
2026-05-05 14:30 41.03553 4.49526 35935 ft 484 kts
2026-05-05 14:30 41.10177 4.51149 35958 ft 484 kts
2026-05-05 14:31 41.16801 4.52764 35949 ft 484 kts
2026-05-05 14:31 41.23430 4.54372 35942 ft 484 kts
2026-05-05 14:32 41.30064 4.55993 35953 ft 485 kts
2026-05-05 14:32 41.36696 4.57616 35917 ft 485 kts
2026-05-05 14:33 41.43327 4.59248 35929 ft 484 kts
2026-05-05 14:33 41.49955 4.60883 35955 ft 485 kts
2026-05-05 14:34 41.56591 4.62519 35943 ft 485 kts
2026-05-05 14:34 41.63223 4.64152 35940 ft 485 kts
2026-05-05 14:35 41.69853 4.65812 35964 ft 487 kts
2026-05-05 14:35 41.76228 4.68998 35944 ft 501 kts 25°
2026-05-05 14:36 41.82222 4.73811 35943 ft 502 kts 27°
2026-05-05 14:36 41.88214 4.78637 35919 ft 503 kts 27°
2026-05-05 14:37 41.94219 4.83466 35936 ft 503 kts 27°
2026-05-05 14:37 42.00218 4.88302 35934 ft 503 kts 27°
2026-05-05 14:38 42.06215 4.93161 35934 ft 503 kts 27°
2026-05-05 14:38 42.12213 4.98030 35935 ft 503 kts 27°
2026-05-05 14:39 42.18204 5.02907 35936 ft 503 kts 27°
2026-05-05 14:39 42.24192 5.07794 35936 ft 503 kts 27°
2026-05-05 14:40 42.30176 5.12681 35960 ft 503 kts 27°
2026-05-05 14:40 42.36157 5.17576 35952 ft 503 kts 27°
2026-05-05 14:41 42.42138 5.22484 35948 ft 502 kts 27°
2026-05-05 14:41 42.48069 5.27368 35943 ft 502 kts 27°
2026-05-05 14:42 42.54037 5.32288 35964 ft 502 kts 27°
2026-05-05 14:42 42.60001 5.37218 35929 ft 502 kts 27°
2026-05-05 14:43 42.65968 5.42160 35935 ft 502 kts 27°
2026-05-05 14:43 42.71932 5.47101 35939 ft 502 kts 27°
2026-05-05 14:44 42.77881 5.52059 35936 ft 501 kts 27°
2026-05-05 14:44 42.83828 5.57032 35934 ft 501 kts 27°
2026-05-05 14:45 42.89764 5.61997 35960 ft 501 kts 27°
2026-05-05 14:45 42.95703 5.66960 35954 ft 500 kts 27°
2026-05-05 14:46 43.01635 5.71929 35917 ft 500 kts 27°
2026-05-05 14:46 43.07554 5.76910 35924 ft 500 kts 27°
2026-05-05 14:47 43.13476 5.81909 35950 ft 500 kts 28°
2026-05-05 14:47 43.19393 5.86913 35949 ft 499 kts 28°
2026-05-05 14:48 43.25262 5.91884 35946 ft 499 kts 28°
2026-05-05 14:48 43.31160 5.96904 35951 ft 498 kts 28°
2026-05-05 14:49 43.37131 6.01701 35941 ft 494 kts 19°
2026-05-05 14:49 43.43586 6.04366 35931 ft 479 kts
2026-05-05 14:50 43.50167 6.05118 35943 ft 474 kts 357°
2026-05-05 14:50 43.56744 6.05781 35937 ft 474 kts 357°